Regional Weather Roundup
Issued by NWS Albany, NY

Home | Current Version | Previous Version | Text Only | Print | Product List | Glossary On
Versions: 1 2 3 4 5 6 7 8 9 10 11 12 13 14 15 16 17 18 19 20 21 22 23 24 25 26 27
000
ASUS41 KALY 250610
RWRALY

NEW YORK STATE HOURLY WEATHER ROUNDUP
NATIONAL WEATHER SERVICE ALBANY NY
200 AM EDT TUE JUL 25 2017

NOTE: "FAIR" INDICATES FEW OR NO CLOUDS BELOW 12,000 FEET WITH NO
SIGNIFICANT WEATHER AND/OR NO OBSTRUCTIONS TO VISIBILITY.

NYZ032-033-038>043-046>054-057>066-NYZ062>081-082-084-250700-
EAST


CITY           SKY/WX    TMP DP  RH WIND       PRES   REMARKS
ALBANY         CLOUDY    59  55  87 CALM      29.98S
GLENS FALLS    CLOUDY    58  52  80 NE5       29.98S
POUGHKEEPSIE   CLOUDY    60  54  80 CALM      29.98R
NEWBURGH       CLOUDY    61  57  88 E6        30.00R
MONTGOMERY     CLOUDY    61  56  83 NE3       29.98S
WHITE PLAINS   PTCLDY    60  55  83 NE3       29.99R
ISLIP          CLOUDY    63  58  83 NE8       29.99R
NEW YORK CITY  CLOUDY    64  59  83 E12       29.97R
CENTRAL PARK   CLOUDY    64  58  80 VRB6      30.01R
$$

NYZ005>009-017-018-044>046-055-056-250700-
CENTRAL


CITY           SKY/WX    TMP DP  RH WIND       PRES   REMARKS
FULTON         LGT RAIN  63  61  93 NW7       29.94R FOG
SYRACUSE       CLOUDY    61  61 100 CALM      29.93R
ROME           CLOUDY    61  58  90 E12       29.95R
ELMIRA         CLOUDY    66  60  81 W6        29.95R
BINGHAMTON     LGT RAIN  61  61 100 W5        29.96
$$

NYZ026>034-041>043-087-250700-
NORTH


CITY           SKY/WX    TMP DP  RH WIND       PRES   REMARKS
WATERTOWN      CLOUDY    61  61 100 CALM      29.92R FOG
FORT DRUM      NOT AVBL
OGDENSBURG     DRIZZLE   57  56  97 E7        29.95R
MASSENA        RAIN      57  56  96 E12       29.97R
SARANAC LAKE   CLOUDY    54  54 100 NE6       29.96R
PLATTSBURGH    CLOUDY    58  54  86 S3        29.99R
$$

NYZ001>004-010>016-019>021-085-250700-
WEST


CITY           SKY/WX    TMP DP  RH WIND       PRES   REMARKS
NIAGARA FALLS  CLOUDY    65  57  75 N9        30.02R
BUFFALO        CLOUDY    62  58  86 NW5       30.01R
DUNKIRK        CLOUDY    63  60  90 NW14G21   30.03R
JAMESTOWN      CLOUDY    59  55  88 NW10      30.05R
WELLSVILLE     LGT RAIN  60  57  89 NW12      30.03R FOG
ROCHESTER      LGT RAIN  63  61  93 NW8       29.98R FOG
PENN YAN       CLOUDY    63  59  87 CALM      29.97R
$$

             KEY
       WCI = WIND CHILL INDEX
       VSB = VISIBILITY
       HX  = HEAT INDEX
$$




USA.gov is the U.S. government's official web portal to all federal, state and local government web resources and services.